Theta_e
297 298 298 299 299 300 301 303 304 304 305 306 305 304 304 304 304 301 295 297 294 285 286 283 284 284 286 287 281 283 283 284 281 277 276 275 273 276 274 277 276 278 276 274 277 275 273 287 286 283 286 285 284 285
296 296 297 297 298 298 299 300 301 303 303 303 303 303 303 302 303 303 293 294 295 286 286 287 286 287 287 287 287 286 284 282 285 278 276 276 272 275 276 273 282 275 281 277 279 278 286 284 285 286 286 286 285 284
296 296 296 296 297 297 297 298 299 301 301 302 302 302 302 303 302 302 293 291 291 285 285 284 282 287 290 290 291 283 284 289 287 289 282 279 273 279 272 277 278 280 284 281 281 284 284 285 286 288 287 286 285 283
296 295 295 295 295 296 296 296 297 298 299 298 299 299 301 301 300 298 293 292 290 286 282 284 288 284 288 289 288 289 288 289 288 287 281 278 276 283 279 281 281 282 282 282 282 283 284 285 284 281 282 283 281 279
296 296 295 295 294 295 295 295 296 296 297 297 297 297 300 298 297 292 290 289 288 286 280 283 285 285 286 287 286 286 286 286 285 284 283 281 283 283 281 281 279 284 282 280 279 283 283 283 277 277 277 278 278 277
295 296 295 295 295 294 295 295 295 295 295 297 296 297 297 298 296 294 285 288 288 288 283 280 283 274 273 281 285 284 283 285 285 285 284 283 286 284 280 278 283 282 279 280 284 276 276 276 276 275 274 273 274 275
295 295 295 295 295 294 294 294 294 294 294 295 296 296 298 297 292 286 285 285 288 286 284 280 281 280 272 278 284 284 285 284 284 284 283 284 283 284 280 277 277 276 272 271 271 273 274 274 273 271 272 269 271 269
295 295 295 295 294 293 294 294 293 293 293 294 296 295 297 295 291 284 284 287 287 283 278 279 278 277 274 278 280 282 282 282 282 280 280 279 280 280 278 279 276 272 271 269 269 269 269 269 270 270 270 270 269 268
294 295 295 295 293 293 294 293 293 292 291 294 295 294 288 283 280 278 285 284 281 279 274 271 271 271 273 273 275 278 277 275 275 277 273 272 276 276 275 274 273 272 272 269 267 266 266 266 267 266 268 268 268 266
295 294 295 295 293 293 294 293 293 291 288 290 287 278 274 275 284 284 278 273 272 270 270 270 263 268 270 270 276 268 277 273 267 266 266 267 269 270 270 267 269 270 271 269 268 268 268 267 268 267 267 268 268 267
295 295 295 295 293 292 294 293 292 289 287 280 276 275 278 281 277 272 269 268 266 266 265 262 262 265 268 264 264 269 266 267 266 264 263 266 267 271 266 264 265 266 268 269 268 268 267 267 268 268 267 267 267 265
295 295 295 295 292 293 293 293 290 282 275 274 275 275 274 273 270 267 265 263 263 267 260 262 263 264 263 266 262 263 262 263 261 259 259 260 271 265 262 261 260 260 262 263 264 264 265 266 266 267 267 266 265 265
295 295 295 294 291 293 293 292 289 284 281 276 273 271 271 268 265 263 262 264 262 260 259 258 260 264 262 265 261 261 259 262 259 258 261 267 266 261 258 255 254 253 254 256 256 256 257 258 260 261 262 263 263 262
295 295 296 295 290 293 293 291 284 279 273 271 268 267 268 265 266 268 269 267 261 262 260 262 258 261 260 260 260 259 258 257 258 258 262 265 264 259 256 253 253 253 251 252 252 252 252 252 253 253 255 256 256 257
295 295 295 291 290 293 290 283 278 272 271 268 268 265 266 264 260 257 255 257 258 261 262 260 260 266 261 260 260 259 259 257 263 264 267 267 261 259 254 253 254 251 252 250 249 249 249 248 248 249 249 250 252 252
295 294 286 289 292 287 282 276 272 270 266 266 264 264 256 261 260 255 256 261 260 262 261 262 261 260 261 261 260 260 261 263 266 267 269 263 259 256 255 256 255 253 252 250 249 248 248 247 248 249 246 247 248 249
294 286 289 291 288 280 278 273 271 266 267 264 263 257 259 261 263 261 261 261 263 262 265 266 262 265 261 259 260 266 265 268 268 266 267 265 264 260 258 255 253 254 254 255 252 249 249 247 246 247 248 247 246 247
288 288 292 288 282 276 270 268 268 265 266 264 263 259 256 255 256 256 256 259 260 263 264 265 265 261 262 264 267 269 266 265 264 264 264 263 261 258 259 259 257 256 255 254 254 250 248 249 247 249 250 250 247 247
289 287 288 284 281 273 268 266 266 266 264 259 258 257 254 252 251 253 253 255 255 257 258 260 263 262 267 270 269 267 266 265 265 264 262 262 262 261 259 257 258 255 257 254 252 254 254 253 252 253 255 253 251 251
294 287 284 282 279 272 268 265 263 264 263 258 256 255 254 253 251 251 253 254 256 256 256 257 264 270 271 269 266 264 265 264 262 263 265 263 259 258 259 258 260 259 257 256 254 256 255 254 253 254 254 255 253 253
284 282 278 276 270 271 268 263 263 260 256 257 256 256 254 251 251 252 253 255 254 257 259 265 268 268 265 261 260 259 261 262 263 266 266 266 259 260 258 258 258 257 257 256 258 257 257 257 256 256 256 256 254 253
281 282 275 275 270 266 263 261 263 260 260 254 254 253 253 253 253 253 254 253 256 260 264 262 261 261 261 260 259 258 260 260 259 258 259 258 257 258 259 259 257 257 258 260 260 260 259 258 257 256 256 255 256 255
280 277 272 271 269 265 260 261 262 261 262 256 252 253 254 253 252 252 252 256 259 263 260 257 256 255 256 255 255 257 257 256 257 257 258 259 261 259 257 256 257 258 259 260 261 260 259 258 257 256 255 256 255 256
278 273 269 266 268 262 258 260 261 261 260 258 256 255 254 251 250 250 253 258 261 256 254 254 252 254 253 252 254 255 256 256 256 256 257 257 256 255 254 255 255 257 260 260 258 256 256 255 256 255 255 255 255 255
275 272 268 264 260 258 258 259 260 260 261 259 258 257 253 249 253 252 254 259 258 256 256 252 251 253 255 254 254 253 251 254 255 255 254 254 255 255 256 258 259 258 257 257 256 255 255 255 255 255 255 255 255 254
271 271 266 265 258 260 262 261 260 260 260 259 258 252 252 254 253 256 257 257 257 256 255 255 254 253 253 254 256 256 255 256 257 257 255 255 255 258 259 259 259 257 255 255 256 257 256 255 254 253 253 254 256 256
270 267 260 257 261 262 261 262 263 262 260 260 257 255 257 257 257 260 260 258 260 257 257 258 259 258 258 257 256 254 253 253 253 254 251 251 252 252 253 255 255 253 253 253 253 253 253 253 252 252 252 252 253 254
270 264 263 260 261 264 264 262 262 261 264 263 260 258 260 262 264 265 262 258 257 257 257 256 257 257 257 255 254 254 252 250 251 251 251 249 248 248 248 249 251 259 252 252 252 251 251 251 250 249 248 247 247 246
265 262 262 259 261 262 264 264 265 267 266 263 263 265 265 268 265 265 261 259 258 259 259 257 257 254 253 253 252 252 252 252 254 253 252 251 251 251 250 250 250 250 249 249 254 254 251 249 247 246 245 246 246 244
261 263 262 261 262 262 264 265 265 260 259 260 260 262 263 264 262 261 261 259 259 258 257 256 255 255 254 254 255 254 251 250 250 252 252 252 252 248 247 246 246 245 245 244 248 249 257 250 250 246 245 245 245 245
261 262 263 264 264 259 257 256 257 258 258 259 257 259 261 259 260 257 256 255 255 255 254 254 253 253 255 255 255 254 254 249 247 246 246 246 245 245 245 245 245 242 242 243 245 245 246 246 244 244 244 246 246 248
259 262 263 262 258 255 256 258 258 260 258 258 258 256 258 259 261 258 252 252 254 254 254 252 253 253 252 250 248 247 251 248 246 247 248 249 247 246 244 243 241 242 244 246 246 246 246 245 245 245 246 246 246 247
258 260 260 258 256 256 256 258 258 257 257 258 258 258 257 258 259 256 253 251 250 249 249 248 248 248 248 249 248 247 247 246 250 257 255 254 251 249 243 242 243 244 246 246 246 246 246 246 246 246 245 245 245 245
Wind_Speed
21 21 21 21 19 18 17 17 16 15 15 9 9 9 12 7 8 4 1 6 3 2 3 1 3 2 3 3 5 5 5 3 2 2 4 5 4 5 2 4 7 13 9 7 8 9 15 9 2 9 5 3 0 1
20 20 20 20 19 18 17 16 15 14 11 9 8 10 10 8 6 4 1 2 2 2 2 1 2 3 3 1 3 3 1 3 5 3 2 2 1 1 8 9 10 7 9 5 9 7 4 3 5 3 4 6 5 4
18 18 19 19 19 18 17 16 15 12 10 10 10 9 9 10 4 2 2 2 3 2 3 3 3 4 2 3 4 1 2 1 1 2 3 3 5 4 5 9 8 5 7 12 12 12 13 9 7 9 7 8 5 4
18 18 18 17 18 18 17 16 15 12 11 9 9 7 5 9 5 6 2 2 1 0 2 2 1 1 4 3 2 3 3 4 4 2 1 3 3 3 6 7 9 9 4 14 15 7 7 9 7 4 6 5 4 1
17 18 18 17 16 17 16 15 14 13 12 8 8 9 5 6 10 7 3 1 0 1 2 1 3 2 3 5 6 4 3 1 1 1 4 4 2 1 1 2 7 11 13 7 11 5 7 8 3 4 6 6 6 5
18 18 17 17 17 17 17 17 15 14 13 9 5 7 2 6 9 3 1 1 2 1 1 1 3 2 3 4 5 7 5 3 2 3 2 3 4 5 5 10 14 8 4 6 11 4 3 1 3 3 3 4 5 5
19 19 18 18 17 15 18 17 16 15 14 11 5 6 3 2 3 2 2 1 1 1 1 2 1 1 3 2 1 1 3 2 2 3 5 2 1 3 4 16 2 4 3 1 3 3 5 5 3 2 1 2 1 2
17 19 20 20 19 16 19 17 17 16 14 8 6 1 7 10 10 1 3 3 2 2 1 2 1 2 5 0 2 1 2 2 4 2 2 1 1 2 8 4 4 4 4 2 4 0 2 2 0 2 2 2 3 3
15 16 18 19 20 19 21 20 19 18 13 6 4 6 2 3 1 1 2 4 2 3 2 2 3 3 4 1 1 1 0 2 1 2 2 1 3 9 6 1 1 2 2 2 3 1 2 3 3 2 3 3 2 3
14 16 16 18 16 16 21 22 23 20 6 3 1 3 1 1 4 3 3 2 4 3 4 2 1 2 1 2 2 1 2 2 2 4 2 3 6 5 4 5 5 5 4 5 1 4 3 5 5 4 3 2 3 4
15 16 16 15 14 14 19 20 23 22 2 3 2 1 2 2 1 0 1 3 2 2 1 1 1 0 4 2 1 2 1 1 1 4 2 4 6 5 5 3 1 0 2 5 3 2 3 3 3 4 5 5 4 5
15 15 16 12 11 13 18 18 18 6 2 2 2 1 1 3 3 4 2 3 1 4 1 2 2 0 1 2 3 3 1 3 6 1 3 5 6 3 4 4 3 2 4 4 1 2 3 3 3 2 3 4 4 4
15 15 14 9 9 14 17 16 12 6 1 1 2 2 4 3 3 6 5 5 2 3 4 2 0 1 2 1 2 3 2 6 1 2 6 7 3 2 3 3 2 3 4 4 2 2 4 4 5 4 2 3 5 5
16 16 16 11 7 13 14 12 6 2 2 3 3 5 6 4 6 6 4 4 2 3 3 2 2 3 1 3 1 3 4 3 3 2 9 5 6 5 4 4 6 5 5 4 3 1 2 1 1 4 2 3 4 4
15 16 15 6 7 13 11 5 3 2 2 2 4 6 7 2 2 2 1 0 2 1 3 3 3 2 0 2 2 1 4 5 8 8 5 4 5 6 5 4 6 5 6 5 4 3 3 2 1 2 2 1 4 4
14 13 3 6 8 8 5 3 2 1 3 3 2 2 0 2 1 0 2 1 2 1 1 2 3 3 5 4 3 9 5 8 6 5 3 3 3 4 5 6 6 5 6 5 5 5 5 4 4 5 0 1 2 4
11 4 4 4 5 4 6 2 2 3 3 2 3 1 1 1 1 1 1 2 2 1 3 3 5 11 2 1 5 6 8 6 4 3 1 3 4 4 5 4 5 5 5 5 4 3 4 4 4 3 3 4 3 3
5 4 1 1 2 3 3 3 2 2 5 1 2 1 1 1 1 1 1 0 2 2 1 4 3 4 7 6 5 6 4 3 2 2 1 2 2 2 4 6 6 6 6 5 5 5 4 5 5 4 4 4 4 3
6 4 7 3 2 3 2 2 2 3 2 1 1 1 1 1 1 0 1 1 1 1 2 0 3 5 6 6 4 3 2 3 2 2 2 2 4 5 4 3 4 5 6 6 5 4 5 7 4 4 4 5 4 4
6 12 8 4 2 3 3 3 0 0 3 1 1 1 1 1 1 0 0 2 2 1 1 5 8 5 5 3 3 3 2 2 2 2 3 2 2 4 5 4 3 4 4 3 2 3 3 2 3 4 3 4 4 5
7 6 5 3 3 4 1 1 1 1 2 1 0 1 1 1 1 2 2 2 0 5 6 8 6 1 2 2 1 1 2 2 3 3 2 1 1 3 3 2 3 2 3 3 4 4 6 6 3 5 5 5 4 4
3 10 3 1 2 2 2 1 0 2 1 1 1 1 2 2 3 2 2 1 6 6 7 4 2 1 1 2 2 3 1 1 1 2 2 3 2 1 2 4 4 3 4 4 4 5 5 5 3 4 5 4 4 4
11 4 3 2 2 3 3 1 2 3 3 2 1 1 3 2 1 1 3 6 7 5 3 2 2 1 3 2 1 3 3 3 2 2 2 2 1 2 2 2 3 4 3 3 4 4 3 4 5 3 3 3 3 4
5 5 6 5 6 4 2 4 2 2 2 3 3 3 2 2 2 1 6 5 5 1 1 4 3 1 3 2 2 3 3 4 2 1 0 2 0 3 3 2 3 2 1 1 1 2 2 2 4 3 3 4 4 5
5 8 7 7 1 4 5 4 4 3 4 4 4 3 2 2 1 4 6 6 3 3 2 2 2 3 3 3 2 2 2 3 3 3 2 3 2 2 1 1 1 1 2 1 1 2 2 2 2 3 4 4 5 6
9 10 15 12 5 8 9 7 8 8 3 4 4 2 2 2 1 8 6 4 3 3 3 4 4 2 2 3 1 2 2 2 0 2 1 2 1 2 1 1 1 1 2 0 0 2 2 3 3 3 3 5 6 5
11 10 3 1 4 4 3 1 2 3 6 7 5 5 3 3 7 6 3 2 1 0 1 0 2 3 3 2 2 2 3 3 2 2 2 3 3 3 2 2 1 1 1 2 1 0 1 1 2 3 3 3 4 4
6 7 10 8 3 2 5 5 7 8 5 4 7 7 8 8 5 1 0 1 2 2 3 2 3 2 3 2 2 4 3 2 2 3 3 3 3 2 3 2 2 3 2 1 1 1 1 2 1 1 1 3 3 2
5 5 7 6 4 5 7 7 8 5 4 6 6 5 5 1 2 2 2 2 1 1 1 1 1 2 3 2 2 2 2 3 3 3 2 2 2 2 1 1 2 2 2 2 3 5 5 3 3 2 3 2 3 1
6 5 5 5 8 9 4 2 3 2 2 1 1 1 1 1 2 2 2 1 2 1 1 1 3 3 3 2 2 0 1 1 2 4 4 3 4 3 2 1 2 2 2 2 2 3 6 6 5 4 4 4 3 3
4 3 4 3 4 2 2 3 2 2 1 1 1 0 1 3 1 3 3 3 3 2 0 1 1 1 3 2 2 2 2 2 2 3 3 3 3 2 2 1 1 1 2 3 3 3 2 3 2 2 3 3 3 3
1 4 5 5 3 2 1 2 3 2 2 2 2 0 1 1 2 2 4 4 2 3 4 3 2 1 2 1 1 1 0 4 3 3 4 3 3 2 2 2 2 2 3 4 3 3 2 3 2 1 2 3 4 4
3 2 3 5 4 4 2 3 3 3 2 2 2 1 1 1 1 2 1 1 1 1 2 2 3 2 1 3 4 2 3 2 4 5 5 6 5 4 2 2 3 3 4 3 2 2 2 2 1 1 2 3 4 5
Wind_Direction
17 18 20 23 23 22 19 16 17 24 33 41 63 46 37 20 9 33 351 13 30 35 293 184 334 58 49 152 155 177 62 355 29 188 157 206 193 222 23 229 168 182 177 202 220 231 247 237 31 201 228 301 296 166
14 15 16 19 17 17 15 13 10 6 8 17 23 13 6 352 329 343 26 37 352 95 293 291 208 175 46 12 5 193 108 142 180 166 190 174 231 199 185 237 232 242 202 199 181 211 220 229 230 244 167 233 234 218
11 13 13 11 12 12 11 10 6 1 9 12 358 354 350 331 321 141 90 34 49 17 331 0 319 341 60 35 6 162 300 244 229 207 188 208 220 134 212 234 264 259 224 240 256 260 255 245 232 232 224 233 250 226
8 9 11 13 7 7 6 3 3 354 357 14 2 356 47 41 66 70 64 39 354 93 232 236 342 16 23 18 350 332 351 347 324 17 159 200 193 176 240 244 230 232 196 237 252 266 300 279 252 6 310 272 251 180
5 6 6 7 7 4 2 359 359 356 346 345 7 13 103 104 105 82 86 84 233 198 253 116 142 96 322 301 287 244 235 229 282 253 240 235 209 320 306 316 238 225 240 232 246 250 227 242 17 8 351 325 311 279
1 2 3 4 3 1 360 358 351 348 343 320 326 352 307 167 175 220 24 235 286 59 116 2 111 93 323 261 252 204 208 215 221 228 221 235 225 197 235 247 238 235 206 187 239 159 208 303 300 62 319 349 343 318
357 356 357 360 3 359 357 355 351 345 336 318 267 334 175 144 56 147 204 36 203 311 98 304 191 66 358 299 47 117 157 209 233 225 223 240 281 274 237 249 270 247 101 88 93 90 271 164 199 106 105 127 353 358
355 354 353 356 359 356 356 354 351 343 334 307 236 253 96 96 121 21 1 342 192 105 119 176 234 152 359 105 192 277 189 175 199 278 304 276 110 213 256 230 177 146 131 163 177 196 344 347 43 127 169 194 193 121
349 351 351 355 356 349 353 352 354 349 341 328 205 149 89 36 65 255 122 75 40 116 164 137 167 222 350 229 251 254 186 256 183 235 168 275 223 227 245 277 51 136 188 125 105 90 324 269 260 251 239 233 173 176
334 338 341 346 353 345 351 350 348 347 334 341 67 77 309 261 299 151 351 12 18 340 22 149 109 218 329 352 130 359 183 281 269 242 334 222 258 278 211 171 157 166 152 135 271 273 223 260 250 260 257 260 234 190
320 324 327 335 347 340 350 354 352 343 17 53 49 146 225 312 68 178 296 91 326 357 18 61 83 127 329 77 186 73 238 245 273 261 122 268 268 242 165 168 100 350 166 176 179 203 242 252 269 206 188 183 162 160
314 324 332 344 347 340 350 355 5 25 68 265 248 296 356 50 20 69 276 332 89 238 321 136 176 105 44 28 84 321 204 52 248 300 72 266 252 248 163 189 171 166 159 158 157 301 319 310 307 259 177 170 162 149
308 311 320 335 332 333 347 351 3 343 93 348 20 26 77 288 40 149 231 283 290 170 182 167 356 122 28 11 34 70 93 222 45 44 231 233 257 218 179 114 71 38 53 37 21 10 357 340 352 21 78 67 88 97
300 309 312 326 304 318 344 349 1 17 83 104 119 283 169 239 242 197 183 170 204 111 134 141 94 139 176 71 130 106 243 54 326 270 239 246 218 209 178 168 131 211 190 187 215 248 279 273 290 2 48 120 123 151
293 299 313 288 261 326 351 30 66 71 117 172 98 234 222 249 65 78 69 21 253 71 116 81 47 138 124 103 181 81 1 263 208 233 236 234 196 164 182 191 191 182 181 191 185 176 226 241 262 273 318 167 146 141
295 307 247 209 317 9 10 101 53 84 53 110 241 316 296 29 257 184 188 187 207 121 63 38 117 82 244 158 142 216 158 228 247 221 237 139 169 205 195 193 196 178 174 180 167 172 172 184 194 220 158 75 183 163
285 232 185 300 25 78 49 81 65 44 190 201 251 99 47 225 229 79 128 105 164 169 189 139 156 214 89 154 244 200 211 221 220 271 276 188 186 209 182 160 168 172 174 173 162 170 180 160 137 113 193 238 208 196
224 222 226 65 79 101 33 33 78 120 259 114 222 135 96 97 31 102 62 246 152 221 185 212 126 178 206 201 229 235 243 272 221 202 241 176 129 111 158 179 172 177 174 183 172 168 156 161 174 215 204 182 160 165
204 174 149 120 123 97 51 347 61 246 241 55 91 87 78 111 110 117 332 343 22 331 326 271 233 216 226 222 225 253 230 200 253 265 229 184 163 168 164 117 141 154 167 168 181 192 192 202 192 189 192 160 194 191
197 130 127 129 184 97 343 297 296 34 260 121 114 189 49 82 118 147 179 188 216 174 233 217 222 217 210 227 188 190 196 193 138 332 275 211 176 146 172 174 178 158 148 143 151 178 174 191 207 214 213 182 183 211
129 153 122 103 50 61 84 159 196 123 133 225 71 211 147 157 194 181 187 163 151 220 236 230 242 285 100 130 114 127 245 176 208 199 226 276 171 150 137 144 120 123 153 174 199 212 220 227 191 185 197 216 207 215
115 139 105 13 101 68 87 3 12 104 202 133 232 155 215 211 196 193 92 182 234 234 217 216 246 287 334 274 262 198 262 355 58 108 111 120 107 159 200 179 147 192 205 214 203 222 222 213 190 176 190 207 194 201
113 104 85 109 143 179 233 207 207 172 232 206 62 291 243 204 132 116 248 227 253 239 215 219 221 184 221 283 336 271 206 187 241 235 236 221 101 87 84 142 170 177 207 226 202 208 210 181 189 185 169 176 179 202
96 139 167 201 192 204 126 200 199 194 180 212 195 253 227 166 148 135 255 252 243 193 202 226 155 334 345 352 268 246 211 167 185 323 255 124 38 284 185 207 184 220 253 74 143 186 195 185 175 172 177 183 201 210
166 212 167 201 152 121 200 179 188 193 247 170 189 232 204 120 162 232 239 266 256 243 224 146 141 196 181 272 298 288 288 149 163 171 266 141 143 35 324 186 170 146 126 134 234 217 227 172 173 184 193 199 211 216
205 201 186 183 174 173 186 173 193 201 178 179 206 108 147 137 167 242 232 227 234 216 195 179 185 151 303 191 294 351 309 254 192 98 46 45 119 161 188 158 167 254 358 299 316 232 219 191 190 202 217 227 233 237
210 193 186 358 136 127 103 83 103 161 180 188 167 161 161 213 239 247 273 306 120 244 89 99 151 146 152 161 125 75 42 27 70 119 108 60 39 35 81 154 191 219 13 32 30 158 233 250 238 231 237 242 219 213
208 154 162 173 174 181 144 166 175 198 187 143 133 185 187 209 239 269 106 319 98 90 79 46 17 33 80 78 114 116 94 95 77 65 60 42 25 40 51 38 13 19 0 277 206 111 140 181 210 255 261 258 273 275
174 160 122 137 129 187 200 183 194 197 144 165 180 195 218 237 27 40 38 15 347 114 112 115 81 58 59 48 59 69 116 136 104 72 65 299 352 317 352 46 29 19 356 343 266 190 206 192 183 196 220 227 259 292
169 173 113 151 163 200 190 174 141 100 60 62 22 322 250 203 68 22 339 358 11 345 295 215 148 153 180 155 172 48 341 144 152 142 157 200 210 183 135 74 31 360 3 34 43 1 37 45 40 28 23 12 11 11
118 123 106 134 179 76 81 101 89 92 100 118 66 198 307 327 5 43 31 356 325 314 335 76 71 200 145 189 150 126 285 269 134 112 99 108 115 107 94 89 90 75 80 92 88 87 80 52 62 57 38 17 343 351
114 157 133 142 133 123 168 157 137 149 142 166 159 141 235 254 267 78 8 338 341 20 15 16 57 355 331 66 54 45 349 120 134 159 145 118 109 111 118 122 118 121 104 89 84 97 92 107 90 39 12 340 325 318
92 69 79 111 129 167 170 144 156 134 161 182 159 122 63 28 242 356 61 59 89 313 302 298 304 287 193 147 115 96 77 114 144 118 106 105 116 130 142 121 106 91 85 79 78 93 100 111 69 353 340 334 316 311